Location: McFarlands Corners
(41.4117°N, 81.3382°W)
Time: 09:24:44
(UTC+00:00)

Vanguard 1 Rocket - Pass Details

Date: 18 February 2026
Orbit: 653 x 4214 km, 34.3° (Epoch: 8 March)

Event Time Altitude Azimuth Distance (km) Brightness Sun altitude
Rises 03:20:57 0° 276° (W) 7,818 12.7 -47.6°
Reaches altitude 10° 03:30:28 10° 257° (WSW) 7,242 12.2 -49.0°
Maximum altitude 03:41:05 14° 232° (SW) 7,012 11.9 -50.6°
Drops below altitude 10° 03:51:51 10° 206° (SSW) 7,216 11.8 -52.1°
Enters shadow 03:57:54 - 193° (SSW) 7,506 11.8 -52.9°
